Location: Newark
(45.8667°N, 9.7333°E)
Time: 21:58:07
(UTC+00:00)

A-11 Canister half - Pass Details

Date: 25 January 2020
Orbit: 1517 x 1683 km, 47.2° (Epoch: 19 February)

Event Time Altitude Azimuth Distance (km) Brightness Sun altitude
Rises 07:01:28 0° 288° (WNW) 4,667 10.9 0.7°
Reaches altitude 10° 07:05:50 10° 270° (W) 3,690 10.5 1.4°
Maximum altitude 07:11:15 17° 234° (SW) 3,165 10.5 2.2°
Drops below altitude 10° 07:16:46 10° 197° (SSW) 3,732 11.3 3.0°
Sets 07:21:15 0° 179° (S) 4,741 12.1 3.7°
